Home   Weather   Hoshiarpur   Past weeks

Flag for India Past Weather in Hoshiarpur, Punjab, India — Yesterday and Last 2 Weeks

Now
82 °F

Haze.


Feels Like: 81 °F
Forecast: 74 / 96 °F
Wind: No wind

Location: Amritsar Airport

Current Time: Apr 28, 2017 at 11:32:55 pm

Latest Report: Apr 28, 2017 at 10:30 pm


Visibility: 3 mi

Pressure: 29.68 "Hg

Humidity: 32%

Dew Point: 50 °F

Location of HoshiarpurLocation

Past Weather in Hoshiarpur — Graph

°F

Hoshiarpur Temperature Yesterday

Maximum temperature yesterday: 97 °F (at 2:30 pm)
Minimum temperature yesterday: 70 °F (at 6:00 am)
Average temperature yesterday: 85 °F

High & Low Weather Summary for the Past Weeks

 TemperatureHumidityPressure
High109 °F (Apr 18, 4:30 pm)100% (Apr 22, 4:30 am)29.86 "Hg (Apr 22, 4:30 am)
Low64 °F (Apr 15, 6:00 am)8% (Apr 19, 1:00 pm)29.45 "Hg (Apr 20, 5:00 pm)
Average86 °F38%29.68 "Hg
* Reported Apr 13 10:30 pm — Apr 28 10:30 pm, Hoshiarpur, Weather by CustomWeather, © 2017

Note: Actual official high and low records may vary slightly from our data, if they occured in-between our weather recording intervals... More about our weather records

Advertising

Hoshiarpur Weather History for the Previous 24 Hours

Scroll right to see more
 ConditionsComfort  
Time TempWeatherWind HumidityBarometerVisibility
10:30 pm
Fri, Apr 28
82 °FHaze.No wind32%29.68 "Hg3 mi
10:00 pm88 °FPassing clouds.5 mph24%29.68 "Hg3 mi
9:30 pm90 °FPassing clouds.6 mph24%29.68 "Hg3 mi
9:00 pm90 °FPassing clouds.6 mph24%29.68 "Hg3 mi
8:30 pm91 °FPassing clouds.3 mph23%29.68 "Hg3 mi
8:00 pm93 °FPassing clouds.6 mph20%29.68 "Hg4 mi
7:30 pm93 °FScattered clouds.5 mph20%29.68 "Hg4 mi
7:00 pm93 °FScattered clouds.6 mph20%29.65 "Hg4 mi
6:30 pm95 °FScattered clouds.5 mph19%29.65 "Hg4 mi
5:30 pm99 °FScattered clouds.5 mph16%29.65 "Hg4 mi
5:00 pm99 °FScattered clouds.5 mph16%29.65 "Hg4 mi
4:30 pm99 °FScattered clouds.8 mph16%29.65 "Hg4 mi
4:00 pm99 °FScattered clouds.6 mph16%29.68 "Hg4 mi
3:30 pm99 °FScattered clouds.5 mph16%29.68 "Hg4 mi
3:00 pm99 °FScattered clouds.7 mph15%29.71 "Hg4 mi
2:30 pm99 °FScattered clouds.9 mph15%29.71 "Hg4 mi
2:00 pm99 °FScattered clouds.10 mph15%29.71 "Hg4 mi
12:30 pm97 °FScattered clouds.6 mph16%29.77 "Hg4 mi
11:30 am97 °FPassing clouds.3 mph18%29.77 "Hg4 mi
11:00 am95 °FClear.2 mph19%29.77 "Hg4 mi
10:00 am91 °FPassing clouds.2 mph24%29.77 "Hg4 mi
9:30 am90 °FPassing clouds.2 mph27%29.77 "Hg4 mi
9:00 am86 °FPassing clouds.2 mph31%29.80 "Hg4 mi
8:30 am82 °FHaze.2 mph35%29.77 "Hg3 mi
8:00 am79 °FHaze.No wind39%29.77 "Hg2 mi
7:30 am75 °FHaze.No wind44%29.80 "Hg2 mi
7:00 am73 °FHaze.No wind47%29.77 "Hg2 mi
6:30 am70 °FHaze.2 mph50%29.77 "Hg2 mi
6:00 am70 °FHaze.2 mph50%29.77 "Hg2 mi
5:30 am70 °FHaze.No wind53%29.77 "Hg2 mi
4:30 am72 °FHaze.2 mph47%29.77 "Hg2 mi
4:00 am72 °FHaze.No wind47%29.77 "Hg2 mi
3:30 am73 °FHaze.No wind44%29.77 "Hg2 mi
3:00 am72 °FHaze.No wind50%29.77 "Hg2 mi
2:30 am75 °FHaze.No wind41%29.77 "Hg2 mi
2:00 am75 °FHaze.No wind41%29.77 "Hg2 mi
1:30 am73 °FHaze.No wind44%29.80 "Hg2 mi
1:00 am73 °FHaze.No wind44%29.77 "Hg2 mi
12:30 am75 °FHaze.No wind41%29.80 "Hg2 mi
12:00 am75 °FHaze.No wind41%29.80 "Hg3 mi
11:30 pm
Thu, Apr 27
77 °FHaze.No wind36%29.80 "Hg3 mi
11:00 pm77 °FHaze.No wind36%29.80 "Hg3 mi
Weather by CustomWeather, © 2017

See weather overviewHow to use our weather pages